Location: Taaricht
(32.5378°N, 5.4251°W)
Time: 13:29:20
(UTC+00:00)

Cosmos 1437 - Pass Details

Date: 09 April 2020
Orbit: 373 x 376 km, 81.2° (Epoch: 04 June)

Event Time Altitude Azimuth Distance (km) Brightness Sun altitude
Rises 19:08:17 0° 7° (N) 2,245 6.5 -5.1°
Reaches altitude 10° 19:10:31 10° 22° (NNE) 1,387 5.3 -5.6°
Maximum altitude 19:13:01 23° 78° (ENE) 846 3.8 -6.1°
Drops below altitude 10° 19:15:29 10° 134° (SE) 1,375 4.8 -6.6°
Enters shadow 19:17:01 - 146° (SE) 1,949 5.7 -6.9°
